Miscellaneous Local Product
Issued by NWS North Platte, NE

Home | Current Version | Previous Version | Text Only | Print | Product List | Glossary On
Versions: 1 2 3 4 5 6 7 8 9 10 11 12 13 14 15 16 17 18 19 20 21 22 23 24 25 26 27 28 29 30 31 32 33 34 35 36 37 38 39 40 41 42 43 44 45 46 47 48 49 50
302
AXUS43 KLBF 240310
MISLBF


WESTERN AND NORTH CENTRAL NEBRASKA HOURLY WEATHER ROUNDUP
NATIONAL WEATHER SERVICE NORTH PLATTE NE
1000 PM CDT TUE MAY 23 2017

NOTE: "FAIR" INDICATES FEW OR NO CLOUDS BELOW 12,000 FEET WITH NO
SIGNIFICANT WEATHER AND/OR OBSTRUCTIONS TO VISIBILITY.

NOTE: STATIONS NOT REPORTING VARIABLES SUCH AS SKY/WEATHER OR
PRESSURE ARE PROVIDED BY RAWS AND APRS NETWORKS AND ARE NOT UNDER
NATIONAL WEATHER SERVICE QUALITY CONTROL.

...OBSERVATIONS IN AND NEAR THE EASTERN PANHANDLE OF NEBRASKA...

CITY           SKY/WX    TMP DP  RH WIND       PRES   REMARKS
PINE RIDGE     CLEAR     47  38  71 E8        30.01F
GORDON         FAIR      40  35  84 NE6       30.02F
CHADRON        CLEAR     45  40  82 CALM      30.02F
ALLIANCE       CLEAR     46  37  71 N7        30.03S
SIDNEY         CLEAR     46  36  68 N7        30.05S
CRESCENT LAKE    N/A     48  36  62 N6G13       N/A
$$

...OBSERVATIONS IN NORTHERN NEBRASKA AND FAR SOUTHERN SOUTH DAKOTA...

CITY           SKY/WX    TMP DP  RH WIND       PRES   REMARKS
WINNER         CLOUDY    52  42  69 N7        29.98S
VALENTINE      CLEAR     48  37  65 N6        30.00S
THEDFORD       CLEAR     47  40  75 N7        30.01R
AINSWORTH      CLOUDY    49  42  76 N9        29.99S
O`NEILL        CLOUDY    50  43  76 N8        29.95S
ORD            CLOUDY    51  40  65 N13       29.94S
BROKEN BOW     PTCLDY    48  40  73 N7        29.96S
HALSEY           N/A     49  39  69 NW8G18      N/A
BUTTE            N/A     49  44  82 N6          N/A
CHAMBERS         N/A     50  42  73 N3          N/A
EWING            N/A     49  45  85 N6          N/A
$$

...OBSERVATIONS IN SOUTHWEST NEBRASKA AND FAR NORTHEAST COLORADO...

CITY           SKY/WX    TMP DP  RH WIND       PRES   REMARKS
WRAY           FAIR      46  36  66 N6        30.03S
IMPERIAL       CLEAR     46  37  71 N7        30.01S
OGALLALA       CLEAR     46  37  68 N7        30.02R
NORTH PLATTE   CLEAR     48  37  65 N6        29.99S
MCCOOK         CLEAR     50  36  58 N12       29.99R
LEXINGTON      CLEAR     48  40  75 N9        29.97S
STAPLETON        N/A     46  38  75 CALM        N/A
GOTHENBURG       N/A     53  35  51 N7          N/A
CALLAWAY         N/A     51  41  68 N17         N/A
$$

...OBSERVATIONS IN CENTRAL LINCOLN COUNTY AREA...

CITY           SKY/WX    TMP DP  RH WIND       PRES   REMARKS
N.P. AIRPORT   CLEAR     48  37  65 N6        29.99S
N.P. DOWNTOWN    N/A     50  38  62 CALM        N/A
N.P. SOUTHEAST   N/A     50  37  61 CALM        N/A
N.P. HILLCREST   N/A     47  38  71 N9          N/A
$$

...SOME OBSERVATIONS FROM AROUND THE REGION...

CITY           SKY/WX    TMP DP  RH WIND       PRES   REMARKS
DENVER         CLOUDY    51  35  54 E6        30.10S
LIMON          CLEAR     39  33  79 N5        30.09S
ASPEN          CLOUDY    50  20  30 W7        30.22R
LARAMIE        CLOUDY    43  31  62 N6        30.14S
CASPER         CLOUDY    53  38  56 SE5       30.04F
CHEYENNE       CLOUDY    48  32  53 N8        30.11S
SCOTTSBLUFF    CLOUDY    48  39  71 NE6       30.04S
GRAND ISLAND   CLOUDY    51  43  74 N14       29.93S
OMAHA          CLOUDY    52  46  80 N10       29.83S
SIOUX FALLS    MOCLDY    51  47  86 N13       29.88R
PIERRE         MOCLDY    50  38  63 N6        29.97F
RAPID CITY     CLOUDY    47  35  63 NE8       30.00F
BISMARCK       CLEAR     49  38  65 E8        29.98F
KANSAS CITY    CLOUDY    54  47  77 NW6       29.80S
HILL CITY      CLEAR     47  40  76 N6        29.97S
WICHITA        MOCLDY    56  44  64 NW10      29.89S
DODGE CITY     PTCLDY    50  41  71 N9        29.98R
OKLAHOMA CITY  CLOUDY    61  44  53 N14       29.89S
DALLAS         PTCLDY    63  52  67 W13       29.90R
AMARILLO       CLEAR     52  35  52 NW3       30.05R
$$




USA.gov is the U.S. government's official web portal to all federal, state and local government web resources and services.